[[{"header":{"parameterUnit":"m.s-1","parameterCategory":2,"la1":30.2991,"la2":30.254,"lo1":-89.0895,"lo2":-89.0444,"dy":0.0017,"dx":0.0017,"nx":28,"ny":28,"refTime":"2026-03-04T03:00:00:Z","depth":"0","parameterNumber":2,"parameterNumberName":"U-component_of_CURRENTS"},"data":[0,0,0,0,0,0,0,0,0,0,0,0,0,0,0,0,0,0,0,0,0,0,0,0,0,0,0,0,0,0,0,0,0,0,0,0,0,0,0,0,0,0,0,0,0,0,0,0,0,0,0,0,0,0,0,0,0,0,0.2252,0.2252,0,0.2255,0.2255,0.2254,0.2225,0.2225,0.2224,0.2224,0.208,0.2077,0.2073,0,0,0,0,0,0,0,0,0,0,0,0,0,0.2203,0.2203,0.2252,0.2252,0.2253,0.2255,0.2255,0.2254,0.2225,0.2225,0.2224,0.2224,0.2081,0.2077,0.2073,0,0,0,0,0,0,0,0,0,0,0,0,0,0.2212,0.2204,0.2252,0.2242,0.2242,0.2255,0.2255,0.2254,0.2225,0.2225,0.2224,0.2224,0.2082,0.2077,0.2072,0.205,0,0,0.2056,0.2054,0,0,0,0,0,0,0,0,0.2212,0.2213,0.2243,0.2243,0.2243,0.2244,0.2185,0.218,0.2225,0.2226,0.2224,0.2223,0.2125,0.2116,0.2113,0.2043,0.2037,0.2056,0.2052,0.205,0.2049,0,0,0,0,0,0,0,0.2211,0.2213,0.2248,0.2244,0.2244,0.2232,0.2232,0.2184,0.2172,0.2226,0.2225,0.2234,0.2123,0.2118,0.2109,0.2035,0.2056,0.2051,0.2048,0.2046,0.1975,0.1976,0,0,0,0,0,0,0.2223,0.2213,0.2248,0.2249,0.2231,0.2234,0.2234,0.224,0.2175,0.2168,0.2234,0.2233,0.2127,0.2115,0.2103,0.2099,0.205,0.2045,0.2042,0.1974,0.1975,0.1977,0,0,0,0,0,0,0.2221,0.2226,0.2248,0.2235,0.2237,0.2236,0.2242,0.224,0.2237,0.2184,0.2172,0.2234,0.2126,0.2111,0.2081,0.2091,0.2043,0.2038,0.1972,0.1974,0.1976,0.2072,0,0,0,0,0,0,0.222,0.2225,0.2228,0.2236,0.2239,0.2258,0.2243,0.2241,0.2245,0.2243,0.2179,0.2166,0.2125,0.209,0.2076,0.2083,0.2034,0.1971,0.1973,0.1975,0.2067,0.2077,0.2085,0,0,0,0,0,0.2218,0.2224,0.2228,0.2233,0.2245,0.2259,0.2258,0.2252,0.2246,0.2246,0.2219,0.2168,0.2095,0.2087,0.207,0.2076,0.1969,0.1972,0.1975,0.2063,0.2075,0.2085,0,0,0,0,0,0,0.2199,0.2222,0.2227,0.2238,0.2251,0.2255,0.2257,0.2257,0.2238,0.2232,0.218,0.2165,0.2145,0.2101,0.2093,0.2066,0.2025,0.2025,0.2097,0.2108,0.2117,0.2129,0.203,0,0,0,0,0,0.2201,0.2212,0.2233,0.2241,0.225,0.2256,0.226,0.226,0.2251,0.2242,0.2206,0.2169,0.2145,0.2119,0.2086,0.2063,0.2075,0.2058,0.2068,0.2075,0.2077,0.2131,0.2145,0.1986,0.1986,0.1986,0,0,0.2196,0.2211,0.2216,0.2238,0.2246,0.2263,0.2255,0.2267,0.2277,0.2226,0.2218,0.2196,0.2149,0.2136,0.2122,0.2097,0.2134,0.2079,0.2086,0.2083,0.2135,0.2151,0.2165,0.1988,0.1988,0.1987,0,0,0.2196,0.2207,0.2219,0.2235,0.2259,0.2266,0.2273,0.2285,0.2284,0.2282,0.226,0.2252,0.2198,0.2183,0.2164,0.2199,0.2185,0.2185,0.223,0.2283,0.2297,0.231,0.2377,0.2395,0.2184,0.2184,0.2184,0,0.2192,0.2209,0.2223,0.2244,0.2258,0.2271,0.2289,0.2295,0.2295,0.2302,0.2286,0.2268,0.2222,0.2228,0.2244,0.2217,0.2258,0.2193,0.2298,0.231,0.2321,0.2387,0.2405,0.2189,0.2188,0.2188,0.2187,0,0.2203,0.222,0.223,0.2261,0.2277,0.2293,0.2316,0.2328,0.2332,0.2342,0.2357,0.2328,0.2319,0.2309,0.228,0.2334,0.2344,0.2312,0.2275,0.2343,0.2408,0.2425,0.2196,0.2194,0.2193,0.2192,0,0,0.2185,0.223,0.2232,0.2255,0.2288,0.2306,0.2329,0.236,0.2392,0.2392,0.2434,0.2406,0.2413,0.2395,0.2375,0.2411,0.2526,0.24,0.24,0.2476,0.2678,0.265,0.2666,0.2527,0.253,0.2532,0.2704,0,0.2189,0.2227,0.2247,0.2284,0.2308,0.2334,0.2364,0.2394,0.2416,0.246,0.2459,0.2485,0.2441,0.2457,0.2489,0.2511,0.2571,0.2484,0.2591,0.2594,0.2569,0.2684,0.2594,0.2736,0.2721,0.2723,0.2725,0,0.2192,0.2219,0.2255,0.2313,0.2328,0.2355,0.2415,0.2444,0.2505,0.2529,0.2564,0.2574,0.2621,0.258,0.2674,0.263,0.2666,0.2686,0.2693,0.264,0.2598,0.2657,0.2767,0.2699,0.2751,0.2749,0.2747,0,0.2172,0.2225,0.2254,0.2272,0.2338,0.2365,0.2404,0.2464,0.2487,0.2586,0.2618,0.2685,0.2717,0.2777,0.2799,0.2762,0.2919,0.2866,0.2885,0.2884,0.281,0.2797,0.2865,0.296,0.296,0.2959,0.2959,0,0.2167,0.2192,0.2253,0.2271,0.231,0.2372,0.2415,0.2473,0.2546,0.2591,0.2656,0.2705,0.277,0.2844,0.287,0.2941,0.2982,0.2926,0.2935,0.2842,0.2831,0.2765,0.271,0.2966,0.2964,0.2963,0.2962,0,0.2135,0.2175,0.2211,0.2282,0.2299,0.2331,0.2386,0.2429,0.2518,0.2583,0.2619,0.2738,0.2854,0.2917,0.3031,0.3023,0.3017,0.311,0.3006,0.2997,0.2914,0.2868,0.283,0.2736,0.317,0.3171,0.3171,0,0.2116,0.2135,0.2192,0.2206,0.2234,0.2276,0.2307,0.2396,0.2447,0.2591,0.2636,0.2772,0.2853,0.3025,0.3076,0.3171,0.3047,0.3125,0.3013,0.2931,0.2886,0.2749,0.2661,0.2976,0.2975,0.2974,0.2973,0,0.2075,0.2099,0.2127,0.2152,0.2183,0.2198,0.2264,0.2287,0.2415,0.2482,0.2604,0.2684,0.2876,0.294,0.3075,0.3108,0.2967,0.3105,0.305,0.2774,0.2599,0.2505,0.2854,0.2964,0.2965,0.2965,0.2966,0.2966,0.2032,0.2031,0.2067,0.2088,0.2114,0.2128,0.2107,0.2199,0.2251,0.2348,0.2505,0.2599,0.2784,0.2957,0.2977,0.297,0.2912,0.2891,0.2861,0.2744,0.2581,0.2917,0.3002,0.3003,0.3004,0.3005,0.3006,0,0.1962,0.1975,0.1997,0.2009,0.2005,0.2042,0.2078,0.205,0.2078,0.2233,0.2319,0.2501,0.2613,0.2741,0.2832,0.2747,0.2605,0.2675,0.2464,0.2401,0.2753,0.2669,0.2648,0.2648,0.2648,0.2648,0.2648,0.2648,0.1921,0.1913,0.1928,0.1894,0.1898,0.1835,0.182,0.1817,0.1888,0.1972,0.2075,0.2211,0.2489,0.2676,0.2655,0.2583,0.2351,0.2265,0.2228,0.2489,0.2506,0.2522,0.2432,0.2361,0.2361,0.1779,0.1775,0.1772]},{"header":{"parameterUnit":"m.s-1","parameterCategory":2,"la1":30.2991,"la2":30.254,"lo1":-89.0895,"lo2":-89.0444,"dy":0.0017,"dx":0.0017,"nx":28,"ny":28,"refTime":"2026-03-04T03:00:00:Z","depth":"0","parameterNumber":3,"parameterNumberName":"V-component_of_CURRENTS"},"data":[0,0,0,0,0,0,0,0,0,0,0,0,0,0,0,0,0,0,0,0,0,0,0,0,0,0,0,0,0,0,0,0,0,0,0,0,0,0,0,0,0,0,0,0,0,0,0,0,0,0,0,0,0,0,0,0,0,0,-0.0254,-0.0255,0,-0.0314,-0.0315,-0.0316,-0.0347,-0.0347,-0.0346,-0.0346,-0.0412,-0.0414,-0.0416,0,0,0,0,0,0,0,0,0,0,0,0,0,-0.0205,-0.0206,-0.0254,-0.0255,-0.0255,-0.0314,-0.0315,-0.0316,-0.0347,-0.0347,-0.0346,-0.0346,-0.0411,-0.0414,-0.0416,0,0,0,0,0,0,0,0,0,0,0,0,0,-0.0243,-0.0206,-0.0254,-0.0277,-0.0279,-0.0314,-0.0315,-0.0316,-0.0347,-0.0347,-0.0346,-0.0346,-0.0411,-0.0413,-0.0416,-0.0435,0,0,-0.0424,-0.0426,0,0,0,0,0,0,0,0,-0.0241,-0.0245,-0.0273,-0.0275,-0.0278,-0.0322,-0.0322,-0.0356,-0.0347,-0.0322,-0.0346,-0.0346,-0.0382,-0.0387,-0.04,-0.0438,-0.0441,-0.0425,-0.0426,-0.0427,-0.0428,0,0,0,0,0,0,0,-0.0238,-0.0243,-0.0279,-0.0273,-0.0277,-0.0297,-0.0302,-0.0328,-0.0353,-0.0325,-0.0327,-0.0331,-0.0383,-0.0397,-0.0402,-0.0442,-0.0425,-0.0427,-0.0429,-0.043,-0.051,-0.0511,0,0,0,0,0,0,-0.0226,-0.024,-0.0277,-0.0281,-0.0257,-0.0298,-0.0304,-0.0309,-0.0353,-0.0359,-0.0331,-0.0332,-0.0393,-0.0398,-0.0404,-0.0431,-0.0427,-0.043,-0.0432,-0.051,-0.051,-0.0511,0,0,0,0,0,0,-0.0225,-0.0229,-0.0275,-0.0261,-0.0268,-0.0298,-0.0304,-0.031,-0.0323,-0.0358,-0.0364,-0.0337,-0.0393,-0.04,-0.0433,-0.0434,-0.0431,-0.0434,-0.0509,-0.051,-0.0511,-0.0484,0,0,0,0,0,0,-0.0223,-0.0228,-0.023,-0.026,-0.0268,-0.0292,-0.0304,-0.0311,-0.0325,-0.0327,-0.0365,-0.0371,-0.0393,-0.0429,-0.0435,-0.0437,-0.0436,-0.0509,-0.051,-0.051,-0.0484,-0.0484,-0.0484,0,0,0,0,0,-0.0221,-0.0219,-0.0229,-0.0234,-0.0268,-0.0292,-0.0298,-0.0321,-0.0325,-0.0331,-0.0361,-0.037,-0.0439,-0.0431,-0.0439,-0.0442,-0.0508,-0.0509,-0.051,-0.0485,-0.0484,-0.0484,0,0,0,0,0,0,-0.0195,-0.0223,-0.0235,-0.024,-0.0264,-0.0296,-0.0301,-0.0318,-0.0347,-0.0347,-0.038,-0.0389,-0.0417,-0.0436,-0.0426,-0.0469,-0.0474,-0.0477,-0.0451,-0.0451,-0.0451,-0.0419,-0.0438,0,0,0,0,0,-0.019,-0.0197,-0.0228,-0.0231,-0.024,-0.0271,-0.0283,-0.03,-0.0327,-0.034,-0.0368,-0.0399,-0.0429,-0.0444,-0.0473,-0.0497,-0.0494,-0.0504,-0.0503,-0.0503,-0.0484,-0.0497,-0.0495,-0.0515,-0.0515,-0.0515,0,0,-0.018,-0.0196,-0.02,-0.0226,-0.0244,-0.0253,-0.0278,-0.0293,-0.0301,-0.0342,-0.0363,-0.0399,-0.0436,-0.0465,-0.0478,-0.0479,-0.0495,-0.0504,-0.0503,-0.0484,-0.0497,-0.0495,-0.0493,-0.0515,-0.0515,-0.0515,0,0,-0.0157,-0.0177,-0.0173,-0.0191,-0.0216,-0.0238,-0.024,-0.0275,-0.0292,-0.0322,-0.0353,-0.0389,-0.0433,-0.0461,-0.048,-0.0494,-0.0493,-0.0505,-0.0475,-0.0489,-0.0487,-0.0485,-0.0468,-0.0465,-0.0503,-0.0503,-0.0503,0,-0.0141,-0.0142,-0.0175,-0.0176,-0.0182,-0.0227,-0.022,-0.0249,-0.0292,-0.0297,-0.0322,-0.0387,-0.0429,-0.0454,-0.0466,-0.0491,-0.0486,-0.0474,-0.0486,-0.0484,-0.0483,-0.0466,-0.0463,-0.0502,-0.0502,-0.0502,-0.0502,0,-0.0117,-0.0119,-0.0116,-0.0132,-0.0146,-0.0149,-0.0187,-0.0205,-0.0232,-0.0259,-0.0292,-0.0357,-0.0387,-0.0419,-0.045,-0.0461,-0.0455,-0.0484,-0.0481,-0.0479,-0.0462,-0.0459,-0.05,-0.0501,-0.0501,-0.0501,0,0,-0.007,-0.0093,-0.009,-0.0084,-0.012,-0.0123,-0.0138,-0.0156,-0.0145,-0.0213,-0.0201,-0.0291,-0.032,-0.0344,-0.0393,-0.0418,-0.0418,-0.0442,-0.0443,-0.0413,-0.0417,-0.0417,-0.0413,-0.0447,-0.0446,-0.0446,-0.0406,0,-0.0035,-0.002,-0.0044,-0.0026,-0.002,-0.0058,-0.006,-0.0085,-0.0112,-0.0117,-0.0192,-0.0212,-0.0293,-0.0305,-0.0345,-0.0391,-0.041,-0.0424,-0.0435,-0.0434,-0.0424,-0.041,-0.0399,-0.0362,-0.0403,-0.0402,-0.0402,0,0.0003,0.0008,0.0034,0.0039,0.0041,0.0046,0.0055,0.0047,0.0019,-0.0001,-0.0042,-0.0095,-0.0145,-0.0217,-0.0288,-0.0289,-0.0346,-0.0392,-0.0392,-0.0394,-0.0428,-0.0376,-0.0355,-0.0487,-0.0397,-0.0398,-0.0398,0,0.0062,0.0068,0.0096,0.0094,0.0087,0.0105,0.0106,0.009,0.0109,0.0082,0.0098,0.0016,0.0001,-0.0093,-0.0203,-0.0238,-0.0263,-0.0325,-0.0376,-0.0375,-0.0367,-0.0367,-0.0464,-0.0372,-0.0372,-0.0372,-0.0373,0,0.0111,0.0134,0.0131,0.0146,0.0194,0.0171,0.0223,0.0213,0.0226,0.0276,0.017,0.0199,0.0031,-0.0015,-0.0138,-0.0225,-0.0212,-0.0351,-0.0365,-0.0358,-0.0357,-0.0474,-0.0556,-0.0371,-0.0371,-0.0372,-0.0372,0,0.0167,0.0162,0.0199,0.0211,0.0223,0.0261,0.0302,0.0345,0.0344,0.0414,0.0413,0.0357,0.0297,0.014,0.0013,-0.0117,-0.029,-0.0261,-0.0226,-0.0238,-0.0433,-0.0514,-0.0604,-0.0656,-0.0309,-0.0309,-0.0309,0,0.0195,0.022,0.0254,0.029,0.0301,0.0349,0.0392,0.0402,0.0464,0.0524,0.0582,0.0538,0.0529,0.0345,0.0106,-0.0086,-0.0244,-0.0214,-0.0306,-0.0425,-0.0525,-0.0593,-0.0636,-0.0276,-0.0276,-0.0276,-0.0275,0,0.0252,0.0266,0.0297,0.0369,0.0424,0.0483,0.0556,0.0624,0.067,0.0737,0.0837,0.0838,0.0657,0.0468,0.0184,0.0024,-0.0308,-0.0213,-0.0353,-0.0514,-0.0576,-0.0638,-0.0306,-0.0272,-0.0272,-0.0273,-0.0273,-0.0273,0.03,0.0336,0.0384,0.0457,0.0524,0.0627,0.0699,0.0794,0.0913,0.104,0.1036,0.1073,0.0782,0.0391,0.0161,-0.0263,-0.0287,-0.0407,-0.0491,-0.0545,-0.0617,-0.0262,-0.0245,-0.0245,-0.0246,-0.0246,-0.0246,0,0.0356,0.0399,0.0471,0.0564,0.0657,0.0676,0.0817,0.0904,0.1064,0.1175,0.1252,0.1146,0.0781,0.0384,-0.0177,-0.048,-0.0614,-0.0653,-0.0761,-0.079,-0.048,-0.0504,-0.0522,-0.0522,-0.0522,-0.0522,-0.0521,-0.0521,0.0389,0.0466,0.0504,0.0665,0.0739,0.0871,0.0959,0.1091,0.1194,0.1329,0.1365,0.1363,0.1079,0.0081,-0.0598,-0.0759,-0.0985,-0.1033,-0.1137,-0.0952,-0.0937,-0.0922,-0.0964,-0.1079,-0.1079,-0.1407,-0.1411,-0.1413]}],[{"header":{"parameterUnit":"m.s-1","parameterCategory":2,"la1":30.2991,"la2":30.254,"lo1":-89.0895,"lo2":-89.0444,"dy":0.0017,"dx":0.0017,"nx":28,"ny":28,"refTime":"2026-03-04T03:00:00:Z","depth":"2","parameterNumber":2,"parameterNumberName":"U-component_of_CURRENTS"},"data":[0,0,0,0,0,0,0,0,0,0,0,0,0,0,0,0,0,0,0,0,0,0,0,0,0,0,0,0,0,0,0,0,0,0,0,0,0,0,0,0,0,0,0,0,0,0,0,0,0,0,0,0,0,0,0,0,0,0,0.2013,0.2014,0,0.2036,0.2036,0.2037,0.2045,0.2045,0.2045,0.2045,0.2074,0.2075,0.2076,0,0,0,0,0,0,0,0,0,0,0,0,0,0.1961,0.1962,0.2013,0.2014,0.2014,0.2036,0.2036,0.2037,0.2045,0.2045,0.2045,0.2045,0.2074,0.2075,0.2076,0,0,0,0,0,0,0,0,0,0,0,0,0,0.1983,0.1963,0.2013,0.2021,0.2022,0.2036,0.2036,0.2037,0.2045,0.2045,0.2045,0.2045,0.2074,0.2075,0.2076,0.2084,0,0,0.208,0.208,0,0,0,0,0,0,0,0,0.1982,0.1985,0.202,0.2021,0.2022,0.2038,0.2029,0.2053,0.2045,0.2036,0.2045,0.2045,0.2064,0.2066,0.2069,0.2085,0.2087,0.208,0.2081,0.2081,0.2082,0,0,0,0,0,0,0,0.1981,0.1984,0.2022,0.202,0.2021,0.2019,0.2022,0.2034,0.2049,0.2036,0.2037,0.2041,0.2064,0.2068,0.207,0.2087,0.208,0.2081,0.2082,0.2082,0.2214,0.2217,0,0,0,0,0,0,0.198,0.1983,0.2021,0.2022,0.2002,0.202,0.2023,0.2033,0.2049,0.2051,0.2041,0.2041,0.2066,0.2068,0.2071,0.2146,0.2081,0.2082,0.2083,0.2212,0.2215,0.2218,0,0,0,0,0,0,0.1979,0.1984,0.202,0.2003,0.2008,0.2021,0.2031,0.2033,0.2043,0.2052,0.2055,0.205,0.2066,0.2069,0.2091,0.2145,0.2083,0.2084,0.2208,0.2213,0.2217,0.2255,0,0,0,0,0,0,0.1978,0.1983,0.1994,0.2004,0.2009,0.2037,0.2031,0.2033,0.2046,0.2046,0.2061,0.2063,0.2066,0.2089,0.2092,0.2145,0.2085,0.2205,0.221,0.2215,0.225,0.226,0.2268,0,0,0,0,0,0.1976,0.1993,0.1994,0.1999,0.2022,0.2038,0.204,0.2048,0.2046,0.2056,0.2065,0.2063,0.2126,0.209,0.2094,0.2149,0.2202,0.2209,0.2215,0.2246,0.2258,0.2268,0,0,0,0,0,0,0.1975,0.1996,0.1997,0.202,0.203,0.204,0.2055,0.2053,0.2067,0.2075,0.2073,0.2077,0.2129,0.2132,0.2093,0.2209,0.2175,0.2182,0.2198,0.2209,0.2218,0.219,0.2086,0,0,0,0,0,0.1979,0.1999,0.2012,0.2029,0.204,0.2047,0.2055,0.2062,0.2073,0.208,0.209,0.2118,0.2158,0.2172,0.2203,0.2243,0.2235,0.2293,0.2302,0.2309,0.2293,0.2328,0.2337,0.2239,0.2239,0.2239,0,0,0.1983,0.1997,0.2008,0.203,0.2042,0.2063,0.2052,0.2076,0.2097,0.2082,0.2119,0.2145,0.2176,0.2234,0.226,0.2239,0.2338,0.2317,0.2323,0.2302,0.2335,0.2344,0.2352,0.2243,0.2242,0.2241,0,0,0.1999,0.2015,0.2038,0.2047,0.207,0.2083,0.209,0.211,0.2128,0.2156,0.2173,0.2209,0.2259,0.2289,0.2312,0.2386,0.2387,0.2432,0.2447,0.2483,0.249,0.2496,0.2506,0.2513,0.2434,0.2434,0.2434,0,0.2004,0.2027,0.2045,0.2062,0.2074,0.2093,0.2114,0.2139,0.2162,0.2178,0.2178,0.2264,0.2281,0.2353,0.2387,0.2403,0.242,0.2397,0.249,0.2496,0.2501,0.251,0.2517,0.2436,0.2436,0.2436,0.2435,0,0.2021,0.2047,0.2062,0.2094,0.2113,0.2134,0.2168,0.2198,0.222,0.2235,0.2304,0.2331,0.238,0.2414,0.2417,0.2494,0.2493,0.2495,0.2449,0.2513,0.2519,0.2526,0.244,0.2439,0.2438,0.2438,0,0,0.2014,0.2066,0.2071,0.2091,0.2129,0.2147,0.2199,0.2242,0.2276,0.2313,0.2356,0.2424,0.244,0.2468,0.2501,0.2523,0.2576,0.253,0.253,0.2516,0.2649,0.2639,0.2644,0.2606,0.2607,0.2608,0.2639,0,0.2022,0.2062,0.2087,0.213,0.2156,0.2189,0.2236,0.2278,0.2316,0.2365,0.2407,0.2465,0.2468,0.2507,0.2536,0.2569,0.2594,0.2566,0.2609,0.261,0.2574,0.2652,0.2454,0.2466,0.2645,0.2646,0.2647,0,0.2019,0.2054,0.2089,0.2157,0.2173,0.2201,0.227,0.2316,0.2387,0.2418,0.2473,0.2509,0.2567,0.256,0.2626,0.2617,0.2637,0.2645,0.2647,0.262,0.2611,0.2434,0.247,0.2657,0.2656,0.2655,0.2655,0,0.1991,0.2054,0.2084,0.2096,0.2172,0.2202,0.2256,0.2324,0.2362,0.2453,0.248,0.2561,0.2603,0.2643,0.2676,0.2663,0.2732,0.2716,0.2719,0.2717,0.2545,0.2526,0.2757,0.2757,0.2757,0.2757,0.2757,0,0.1972,0.2003,0.2072,0.2084,0.2134,0.2196,0.2248,0.2314,0.239,0.2431,0.251,0.2558,0.2628,0.2679,0.2699,0.2736,0.276,0.2726,0.2734,0.2557,0.254,0.2697,0.2689,0.2758,0.2758,0.2758,0.2757,0,0.1924,0.1968,0.201,0.2092,0.2115,0.2152,0.2233,0.2269,0.2355,0.2413,0.2445,0.2558,0.2638,0.2695,0.2763,0.276,0.2794,0.2802,0.2583,0.2566,0.2741,0.2736,0.2793,0.2793,0.2793,0.2793,0.2793,0,0.1905,0.1915,0.1992,0.2009,0.2042,0.2098,0.2133,0.2238,0.2273,0.2404,0.2429,0.2542,0.2611,0.2715,0.2745,0.2788,0.2821,0.2616,0.2552,0.2748,0.2749,0.2744,0.2739,0.2334,0.233,0.2327,0.2324,0,0.1864,0.1884,0.1917,0.1952,0.1985,0.2017,0.2083,0.2099,0.2219,0.2277,0.2372,0.2444,0.2575,0.2553,0.2633,0.2628,0.2594,0.2558,0.2823,0.2372,0.2322,0.2322,0.233,0.2297,0.23,0.2302,0.2303,0.2305,0.1825,0.183,0.1863,0.1886,0.192,0.1929,0.1928,0.1997,0.2049,0.2119,0.2249,0.2296,0.2369,0.2403,0.2364,0.2341,0.2513,0.2391,0.2397,0.2406,0.2365,0.232,0.2285,0.2287,0.2289,0.2291,0.2293,0,0.1759,0.1772,0.1793,0.1811,0.1802,0.1855,0.188,0.1862,0.1886,0.1986,0.2059,0.1961,0.1983,0.2047,0.1985,0.2021,0.196,0.193,0.1819,0.185,0.1877,0.1803,0.1576,0.1574,0.1571,0.1569,0,0,0.1725,0.1712,0.1718,0.1681,0.1692,0.1656,0.1648,0.1653,0.1696,0.17,0.1718,0.1887,0.1993,0.1741,0.1742,0.1638,0.1716,0.158,0.2165,0.2065,0.2087,0.217,0.2098,0,0,0,0,0]},{"header":{"parameterUnit":"m.s-1","parameterCategory":2,"la1":30.2991,"la2":30.254,"lo1":-89.0895,"lo2":-89.0444,"dy":0.0017,"dx":0.0017,"nx":28,"ny":28,"refTime":"2026-03-04T03:00:00:Z","depth":"2","parameterNumber":3,"parameterNumberName":"V-component_of_CURRENTS"},"data":[0,0,0,0,0,0,0,0,0,0,0,0,0,0,0,0,0,0,0,0,0,0,0,0,0,0,0,0,0,0,0,0,0,0,0,0,0,0,0,0,0,0,0,0,0,0,0,0,0,0,0,0,0,0,0,0,0,0,-0.0016,-0.0016,0,-0.0066,-0.0066,-0.0067,-0.0102,-0.0102,-0.0103,-0.0103,-0.0166,-0.0167,-0.0169,0,0,0,0,0,0,0,0,0,0,0,0,0,0.0023,0.0022,-0.0016,-0.0016,-0.0017,-0.0065,-0.0066,-0.0067,-0.0102,-0.0102,-0.0103,-0.0103,-0.0165,-0.0167,-0.0169,0,0,0,0,0,0,0,0,0,0,0,0,0,-0.0007,0.0022,-0.0016,-0.004,-0.0043,-0.0065,-0.0066,-0.0067,-0.0102,-0.0102,-0.0103,-0.0103,-0.0165,-0.0167,-0.0169,-0.0174,0,0,-0.0175,-0.0176,0,0,0,0,0,0,0,0,-0.0006,-0.0009,-0.0036,-0.0039,-0.0042,-0.0078,-0.0076,-0.0103,-0.0102,-0.008,-0.0103,-0.0103,-0.0137,-0.0142,-0.015,-0.0177,-0.0179,-0.0176,-0.0177,-0.0178,-0.0178,0,0,0,0,0,0,0,-0.0003,-0.0007,-0.0035,-0.0037,-0.004,-0.0058,-0.0062,-0.0081,-0.0106,-0.0082,-0.0084,-0.009,-0.0139,-0.0148,-0.0152,-0.018,-0.0176,-0.0177,-0.0179,-0.018,-0.0265,-0.0266,0,0,0,0,0,0,0.0005,-0.0005,-0.0034,-0.0037,-0.0024,-0.0058,-0.0063,-0.0066,-0.0105,-0.0112,-0.0089,-0.0091,-0.0144,-0.0149,-0.0154,-0.0173,-0.0178,-0.018,-0.0181,-0.0264,-0.0265,-0.0266,0,0,0,0,0,0,0.0006,0.0003,-0.0032,-0.0022,-0.0028,-0.0058,-0.0061,-0.0067,-0.0076,-0.0111,-0.0118,-0.0093,-0.0145,-0.0151,-0.0165,-0.0176,-0.0181,-0.0183,-0.0263,-0.0264,-0.0266,-0.0205,0,0,0,0,0,0,0.0007,0.0003,0.0005,-0.0021,-0.0028,-0.0038,-0.0061,-0.0067,-0.0079,-0.0082,-0.0116,-0.0123,-0.0145,-0.0162,-0.0168,-0.0179,-0.0184,-0.0261,-0.0263,-0.0265,-0.0205,-0.0204,-0.0203,0,0,0,0,0,0.0009,0.0016,0.0006,0.0002,-0.0025,-0.0038,-0.0042,-0.0066,-0.0079,-0.0077,-0.01,-0.0122,-0.0179,-0.0163,-0.017,-0.0182,-0.026,-0.0263,-0.0265,-0.0206,-0.0204,-0.0203,0,0,0,0,0,0,0.0036,0.0012,0.0001,0.0001,-0.0015,-0.0044,-0.0045,-0.0062,-0.008,-0.0083,-0.0117,-0.0124,-0.0146,-0.0174,-0.0157,-0.0218,-0.0231,-0.0234,-0.0184,-0.0183,-0.0181,-0.0149,-0.0186,0,0,0,0,0,0.0042,0.0041,0.0016,0.0017,0.001,-0.0017,-0.0026,-0.0041,-0.0061,-0.007,-0.0097,-0.0133,-0.0161,-0.0177,-0.0205,-0.0226,-0.0242,-0.0247,-0.0245,-0.0244,-0.0225,-0.0264,-0.0263,-0.0273,-0.0273,-0.0273,0,0,0.0053,0.004,0.0039,0.0022,0.0007,0.0007,-0.0023,-0.0031,-0.0033,-0.0073,-0.0085,-0.0121,-0.0165,-0.019,-0.0205,-0.0213,-0.025,-0.0247,-0.0244,-0.0226,-0.0266,-0.0264,-0.0263,-0.0275,-0.0275,-0.0274,0,0,0.0077,0.0063,0.0069,0.0063,0.0045,0.0026,0.0026,-0.0002,-0.0017,-0.0031,-0.0067,-0.0097,-0.0145,-0.0174,-0.0196,-0.0204,-0.0238,-0.0236,-0.0201,-0.0239,-0.0237,-0.0236,-0.0246,-0.0246,-0.0239,-0.0239,-0.0239,0,0.009,0.0096,0.007,0.0079,0.0079,0.0039,0.005,0.0031,0.0001,-0.0003,-0.0029,-0.0098,-0.0134,-0.016,-0.0169,-0.0197,-0.0219,-0.0197,-0.0233,-0.0232,-0.0232,-0.0243,-0.0244,-0.0236,-0.0236,-0.0237,-0.0237,0,0.0122,0.0127,0.0133,0.0129,0.0124,0.0128,0.0101,0.0091,0.0062,0.0042,0.0009,-0.0046,-0.0088,-0.0118,-0.0142,-0.017,-0.0185,-0.022,-0.0226,-0.0227,-0.0239,-0.0241,-0.0232,-0.0233,-0.0234,-0.0235,0,0,0.0149,0.0153,0.0156,0.0169,0.0153,0.0156,0.0152,0.0142,0.0148,0.0096,0.0093,0.0027,-0.0012,-0.004,-0.0093,-0.0126,-0.0144,-0.017,-0.0173,-0.0157,-0.0211,-0.0222,-0.0225,-0.0191,-0.0191,-0.0192,-0.0215,0,0.018,0.0213,0.0202,0.0232,0.0246,0.0221,0.0225,0.0212,0.0185,0.0172,0.0107,0.0079,0.0017,-0.0009,-0.0053,-0.0119,-0.0149,-0.0133,-0.0231,-0.0233,-0.0225,-0.0228,-0.0202,-0.0222,-0.0217,-0.0217,-0.0218,0,0.0216,0.0233,0.027,0.0291,0.0295,0.0304,0.0311,0.031,0.0283,0.0261,0.0216,0.0161,0.0107,0.0046,-0.0057,-0.0048,-0.012,-0.0172,-0.0176,-0.0204,-0.0248,-0.0226,-0.0226,-0.0221,-0.0221,-0.0221,-0.0221,0,0.0253,0.0282,0.0314,0.0324,0.0337,0.035,0.035,0.0339,0.0351,0.0315,0.0315,0.0231,0.0191,0.0088,-0.0032,-0.0048,-0.014,-0.018,-0.0251,-0.0251,-0.0255,-0.0256,-0.0247,-0.0247,-0.0247,-0.0247,-0.0247,0,0.0293,0.032,0.0337,0.0358,0.0403,0.0394,0.043,0.0421,0.0418,0.0442,0.0358,0.0352,0.0196,0.0118,0.0001,-0.0124,-0.0122,-0.023,-0.026,-0.0235,-0.0233,-0.0259,-0.026,-0.0248,-0.0248,-0.0248,-0.0248,0,0.0329,0.0338,0.0382,0.0409,0.0422,0.0453,0.0485,0.0513,0.0499,0.0525,0.0517,0.0445,0.0346,0.0198,0.0043,-0.0071,-0.0193,-0.0241,-0.0185,-0.0208,-0.0282,-0.028,-0.0309,-0.031,-0.0311,-0.0311,-0.0311,0,0.035,0.0377,0.0424,0.0457,0.0471,0.0513,0.0546,0.0551,0.0586,0.0587,0.0609,0.0527,0.0483,0.0261,0.0051,-0.0139,-0.0182,-0.0248,-0.0279,-0.0263,-0.029,-0.0287,-0.0284,-0.0256,-0.0256,-0.0256,-0.0256,0,0.0394,0.0408,0.0444,0.0511,0.0555,0.0609,0.0656,0.0698,0.071,0.0735,0.0756,0.0725,0.0521,0.0334,0.0065,-0.0072,-0.0217,-0.0252,-0.0257,-0.0247,-0.0216,-0.0241,-0.024,-0.0255,-0.0255,-0.0255,-0.0255,-0.0255,0.0426,0.0458,0.0505,0.057,0.0625,0.0694,0.074,0.0801,0.0863,0.0905,0.0874,0.0839,0.0622,0.0291,0.0053,-0.0204,-0.02,-0.0291,-0.029,-0.0289,-0.0282,-0.0254,-0.0297,-0.0297,-0.0297,-0.0297,-0.0298,0,0.0465,0.0499,0.0563,0.0633,0.0695,0.0719,0.0809,0.0858,0.0938,0.0986,0.1004,0.0809,0.0604,0.0349,-0.0021,-0.0243,-0.0266,-0.0318,-0.0293,-0.0291,-0.0291,-0.0283,-0.0299,-0.0299,-0.03,-0.0301,0,0,0.0486,0.0545,0.0574,0.0677,0.0729,0.081,0.0862,0.0943,0.0998,0.1042,0.1033,0.0999,0.0693,0.0432,0.0129,-0.0084,-0.0141,-0.0132,-0.0107,-0.004,-0.0037,-0.0251,-0.0235,0,0,0,0,0]}],[{"header":{"parameterUnit":"m.s-1","parameterCategory":2,"la1":30.2991,"la2":30.254,"lo1":-89.0895,"lo2":-89.0444,"dy":0.0017,"dx":0.0017,"nx":28,"ny":28,"refTime":"2026-03-04T03:00:00:Z","depth":"4","parameterNumber":2,"parameterNumberName":"U-component_of_CURRENTS"},"data":[0,0,0,0,0,0,0,0,0,0,0,0,0,0,0,0,0,0,0,0,0,0,0,0,0,0,0,0,0,0,0,0,0,0,0,0,0,0,0,0,0,0,0,0,0,0,0,0,0,0,0,0,0,0,0,0,0,0,0.1278,0.1279,0,0.1334,0.1334,0.1335,0.1378,0.1379,0.1379,0.138,0.1416,0.1416,0.1417,0,0,0,0,0,0,0,0,0,0,0,0,0,0.1206,0.1207,0.1278,0.1279,0.128,0.1334,0.1334,0.1335,0.1378,0.1379,0.1379,0.138,0.1416,0.1416,0.1417,0,0,0,0,0,0,0,0,0,0,0,0,0,0.1246,0.1207,0.1278,0.1309,0.1312,0.1334,0.1334,0.1335,0.1378,0.1379,0.138,0.138,0.1416,0.1416,0.1417,0.1405,0,0,0.1419,0.1419,0,0,0,0,0,0,0,0,0.1243,0.1248,0.1303,0.1307,0.1311,0.1351,0.1322,0.1358,0.1378,0.1351,0.138,0.1381,0.1393,0.1395,0.1402,0.1406,0.1408,0.1419,0.1419,0.142,0.142,0,0,0,0,0,0,0,0.1241,0.1246,0.1299,0.1304,0.1309,0.1319,0.1325,0.1329,0.1365,0.1354,0.1357,0.1366,0.1394,0.1401,0.1403,0.1408,0.1419,0.142,0.142,0.142,0.1485,0.1487,0,0,0,0,0,0,0.1236,0.1243,0.1297,0.13,0.128,0.132,0.1327,0.1336,0.1366,0.1372,0.1365,0.1367,0.14,0.1402,0.1405,0.1464,0.142,0.142,0.1421,0.1484,0.1486,0.1487,0,0,0,0,0,0,0.1234,0.124,0.1295,0.1274,0.1282,0.132,0.133,0.1337,0.1372,0.1375,0.138,0.1397,0.1401,0.1404,0.1435,0.1463,0.1421,0.1421,0.1483,0.1485,0.1486,0.1536,0,0,0,0,0,0,0.1232,0.1239,0.1257,0.1274,0.1283,0.1323,0.133,0.1337,0.1375,0.1379,0.1403,0.1406,0.1402,0.1434,0.1436,0.1463,0.1422,0.1481,0.1483,0.1486,0.1533,0.154,0.1546,0,0,0,0,0,0.1229,0.1244,0.1258,0.1265,0.1303,0.1324,0.133,0.1358,0.1376,0.1393,0.1414,0.1407,0.1451,0.1436,0.1437,0.1466,0.148,0.1483,0.1486,0.153,0.1539,0.1546,0,0,0,0,0,0,0.1223,0.125,0.1266,0.129,0.1314,0.1332,0.1355,0.1373,0.1404,0.1418,0.142,0.1424,0.1461,0.1457,0.144,0.1493,0.1465,0.1469,0.1499,0.1507,0.1513,0.1517,0.1422,0,0,0,0,0,0.123,0.1251,0.1274,0.1298,0.1312,0.134,0.1358,0.1378,0.1401,0.1418,0.1432,0.1452,0.1469,0.1485,0.1493,0.1521,0.1528,0.1542,0.1548,0.1553,0.1559,0.1594,0.1604,0.1497,0.1497,0.1497,0,0,0.1234,0.1253,0.1266,0.1299,0.1322,0.1344,0.1354,0.1389,0.1417,0.1414,0.1461,0.1472,0.1481,0.1513,0.153,0.1518,0.159,0.1557,0.1562,0.1564,0.1598,0.1609,0.1618,0.1499,0.1499,0.1498,0,0,0.1241,0.1271,0.1288,0.131,0.135,0.1367,0.1383,0.1416,0.1445,0.1485,0.1492,0.1525,0.155,0.1564,0.1573,0.162,0.1619,0.1626,0.1666,0.17,0.171,0.1718,0.1749,0.176,0.1633,0.1633,0.1634,0,0.1249,0.1271,0.1297,0.1318,0.1342,0.1379,0.1402,0.1434,0.1476,0.1502,0.1509,0.1566,0.1574,0.1616,0.1637,0.1635,0.1654,0.1635,0.1709,0.1717,0.1724,0.1755,0.1765,0.1636,0.1636,0.1636,0.1635,0,0.1259,0.1288,0.1302,0.1342,0.1369,0.1398,0.1439,0.1479,0.1519,0.1548,0.1607,0.1626,0.1661,0.1672,0.1672,0.173,0.1727,0.1709,0.1688,0.1738,0.1767,0.1777,0.164,0.1639,0.1638,0.1638,0,0,0.1244,0.1299,0.1306,0.1332,0.1387,0.1408,0.1463,0.1517,0.1566,0.1611,0.1668,0.1707,0.1728,0.174,0.1749,0.1783,0.1855,0.1776,0.1777,0.1806,0.1939,0.1828,0.1828,0.1855,0.1856,0.1858,0.1942,0,0.1248,0.1285,0.1315,0.1362,0.1385,0.1439,0.1487,0.1545,0.1601,0.1665,0.1706,0.1761,0.1752,0.1784,0.1817,0.1848,0.1884,0.1834,0.1888,0.189,0.1783,0.1836,0.1864,0.1949,0.1952,0.1954,0.1955,0,0.1244,0.1272,0.1312,0.1379,0.1397,0.1435,0.1524,0.1575,0.1667,0.1715,0.1777,0.1811,0.188,0.1861,0.1943,0.1916,0.1935,0.1951,0.1954,0.1837,0.1797,0.1888,0.1973,0.1972,0.197,0.1969,0.1968,0,0.1209,0.1271,0.1305,0.1326,0.1405,0.1446,0.1501,0.1593,0.1648,0.1758,0.1809,0.1883,0.1938,0.1976,0.2017,0.1993,0.2098,0.2064,0.198,0.1973,0.2026,0.2016,0.2117,0.2117,0.2117,0.2117,0.2116,0,0.1188,0.1219,0.1298,0.1314,0.1371,0.1439,0.1516,0.1584,0.1688,0.1753,0.1837,0.1892,0.1973,0.2035,0.2052,0.2053,0.213,0.1997,0.1988,0.2046,0.2037,0.2033,0.2023,0.212,0.2119,0.2118,0.2118,0,0.1139,0.1188,0.1232,0.132,0.1354,0.1399,0.1515,0.157,0.1681,0.177,0.181,0.1928,0.2009,0.2071,0.2147,0.209,0.2107,0.2085,0.2163,0.2156,0.1949,0.194,0.1994,0.1991,0.1988,0.1986,0.1984,0,0.1112,0.1131,0.1223,0.1252,0.1296,0.1376,0.143,0.1552,0.1609,0.1773,0.1804,0.1929,0.1992,0.201,0.2083,0.2112,0.2083,0.2075,0.1987,0.1952,0.1938,0.1934,0.1928,0.1979,0.1979,0.1978,0.1977,0,0.106,0.1105,0.1139,0.1199,0.1256,0.1316,0.1406,0.1435,0.1577,0.1689,0.1754,0.1802,0.1889,0.194,0.1983,0.1995,0.2069,0.2046,0.205,0.1967,0.1935,0.1923,0.1921,0.1968,0.1969,0.197,0.1971,0,0.1025,0.1036,0.1088,0.1133,0.1201,0.1239,0.1293,0.1362,0.1431,0.1603,0.1624,0.1756,0.187,0.1882,0.1923,0.1929,0.1889,0.1812,0.1828,0.1839,0.1748,0.1682,0.164,0,0,0,0,0,0.0985,0.0988,0.1021,0.1061,0.1126,0.117,0.127,0.1329,0.146,0.1465,0.1539,0.1611,0.1674,0.1745,0.172,0.186,0.19,0.1823,0.1819,0.1915,0.1926,0.1833,0,0,0,0,0,0,0.0955,0.0981,0.099,0.0995,0.1014,0.1078,0.1139,0.1226,0.1234,0.137,0.1412,0.1514,0.16,0.1673,0.1689,0.1711,0.1675,0.1907,0.1903,0.1909,0.1919,0.1928,0.1836,0,0,0,0,0]},{"header":{"parameterUnit":"m.s-1","parameterCategory":2,"la1":30.2991,"la2":30.254,"lo1":-89.0895,"lo2":-89.0444,"dy":0.0017,"dx":0.0017,"nx":28,"ny":28,"refTime":"2026-03-04T03:00:00:Z","depth":"4","parameterNumber":3,"parameterNumberName":"V-component_of_CURRENTS"},"data":[0,0,0,0,0,0,0,0,0,0,0,0,0,0,0,0,0,0,0,0,0,0,0,0,0,0,0,0,0,0,0,0,0,0,0,0,0,0,0,0,0,0,0,0,0,0,0,0,0,0,0,0,0,0,0,0,0,0,0.0057,0.0057,0,0.0025,0.0024,0.0024,-0.0002,-0.0002,-0.0002,-0.0003,-0.002,-0.002,-0.002,0,0,0,0,0,0,0,0,0,0,0,0,0,0.0078,0.0078,0.0057,0.0057,0.0057,0.0025,0.0024,0.0024,-0.0002,-0.0002,-0.0002,-0.0003,-0.002,-0.002,-0.002,0,0,0,0,0,0,0,0,0,0,0,0,0,0.006,0.0078,0.0058,0.004,0.0038,0.0025,0.0024,0.0024,-0.0002,-0.0002,-0.0003,-0.0003,-0.002,-0.002,-0.002,-0.0014,0,0,-0.0021,-0.0021,0,0,0,0,0,0,0,0,0.0061,0.0059,0.0043,0.0041,0.0039,0.0015,0.0025,0.0012,-0.0002,0.0014,-0.0003,-0.0003,-0.0007,-0.0008,-0.0013,-0.0015,-0.0015,-0.0021,-0.0021,-0.0022,-0.0022,0,0,0,0,0,0,0,0.0062,0.006,0.0045,0.0042,0.004,0.0027,0.0024,0.0022,0.0007,0.0012,0.001,0.0006,-0.0008,-0.0013,-0.0014,-0.0016,-0.0021,-0.0021,-0.0022,-0.0022,-0.001,-0.001,0,0,0,0,0,0,0.0067,0.0062,0.0046,0.0044,0.0049,0.0027,0.0023,0.0023,0.0006,0.0003,0.0007,0.0005,-0.0012,-0.0013,-0.0014,-0.0001,-0.0022,-0.0022,-0.0022,-0.0011,-0.001,-0.001,0,0,0,0,0,0,0.0068,0.0066,0.0047,0.0051,0.0048,0.0027,0.0027,0.0023,0.0016,0.0002,-0.0001,0.0004,-0.0012,-0.0014,-0.0012,-0.0002,-0.0022,-0.0022,-0.0012,-0.0011,-0.001,0.0023,0,0,0,0,0,0,0.0069,0.0067,0.007,0.0052,0.0048,0.0046,0.0027,0.0022,0.0015,0.0012,-0.0001,-0.0003,-0.0013,-0.0011,-0.0012,-0.0002,-0.0022,-0.0012,-0.0011,-0.001,0.0021,0.0024,0.0027,0,0,0,0,0,0.007,0.008,0.0071,0.0069,0.0053,0.0047,0.0044,0.0027,0.0015,0.0019,0.0008,-0.0003,-0.0006,-0.0011,-0.0012,-0.0002,-0.0013,-0.0011,-0.001,0.002,0.0024,0.0027,0,0,0,0,0,0,0.0093,0.0078,0.0067,0.0073,0.0062,0.0042,0.0045,0.003,0.0023,0.0021,0.0004,0.0002,0.0007,-0.0001,-0.0006,0.0003,-0.0011,-0.001,0.0012,0.0016,0.0019,0.0022,-0.0023,0,0,0,0,0,0.0099,0.0101,0.0084,0.0088,0.0085,0.0064,0.0059,0.0047,0.0037,0.0033,0.0021,0.0013,0.0011,0.001,0.0006,0.0014,-0.0013,0.0019,0.0022,0.0025,0.0027,-0.0009,-0.0009,-0.0006,-0.0006,-0.0006,0,0,0.0109,0.0101,0.0102,0.0093,0.0083,0.0088,0.006,0.0058,0.0061,0.0034,0.0037,0.0024,0.0015,0.0022,0.0023,0.0016,0.001,0.0026,0.0029,0.0029,-0.0008,-0.0008,-0.0009,-0.0006,-0.0006,-0.0006,0,0,0.0131,0.0123,0.0132,0.0128,0.0116,0.0107,0.0107,0.0089,0.0081,0.0081,0.0063,0.0053,0.0052,0.0043,0.004,0.0059,0.0027,0.0061,0.0081,0.0047,0.0046,0.0045,0.0008,0.0004,0.0064,0.0064,0.0064,0,0.0141,0.015,0.0134,0.0143,0.0145,0.0118,0.0131,0.0122,0.0106,0.0102,0.0089,0.0072,0.0061,0.0065,0.0071,0.0066,0.004,0.0067,0.005,0.0048,0.0047,0.0009,0.0004,0.0065,0.0065,0.0065,0.0065,0,0.0167,0.0176,0.0184,0.0187,0.0189,0.0196,0.0183,0.018,0.0164,0.0148,0.014,0.0118,0.0106,0.0102,0.0093,0.0084,0.0066,0.0056,0.0039,0.0048,0.0009,0.0002,0.0068,0.0067,0.0067,0.0066,0,0,0.0183,0.0199,0.0201,0.0214,0.0213,0.0219,0.0227,0.0224,0.0226,0.0201,0.0196,0.0182,0.0156,0.0151,0.0131,0.0103,0.0066,0.0079,0.0076,0.004,-0.0014,-0.0009,-0.0016,0.0051,0.005,0.0049,-0.0038,0,0.0206,0.0237,0.0237,0.027,0.0286,0.0274,0.0285,0.0279,0.0263,0.0252,0.0215,0.0207,0.018,0.0172,0.0139,0.0086,0.0052,0.0091,-0.0016,-0.0019,-0.0018,-0.0022,0.0047,-0.0043,-0.0045,-0.0046,-0.0046,0,0.0228,0.0248,0.0284,0.0314,0.032,0.0336,0.0346,0.0352,0.0329,0.0314,0.0287,0.0256,0.0217,0.0188,0.0094,0.012,0.0057,0.0009,0.0005,-0.0006,-0.0026,-0.0054,-0.0058,-0.0057,-0.0057,-0.0056,-0.0055,0,0.0247,0.0282,0.0315,0.0325,0.0351,0.0365,0.0376,0.0369,0.0376,0.035,0.0344,0.0288,0.026,0.0176,0.0082,0.0083,-0.0031,-0.0044,-0.0101,-0.0102,-0.0096,-0.0094,-0.0118,-0.0118,-0.0117,-0.0117,-0.0117,0,0.0269,0.0297,0.0329,0.0348,0.039,0.0395,0.0426,0.0424,0.042,0.0431,0.0378,0.0367,0.0254,0.0179,0.0087,-0.0024,-0.0032,-0.0101,-0.0124,-0.008,-0.0075,-0.0101,-0.0098,-0.012,-0.012,-0.0119,-0.0118,0,0.0283,0.0302,0.0345,0.0383,0.04,0.0428,0.0466,0.0484,0.0475,0.0486,0.048,0.0417,0.0321,0.0205,0.0063,-0.0011,-0.0121,-0.0159,-0.0104,-0.0122,-0.0174,-0.0168,-0.0238,-0.0238,-0.0239,-0.0239,-0.024,0,0.0293,0.0316,0.0373,0.0403,0.0423,0.0466,0.0496,0.0509,0.0528,0.0519,0.0524,0.0444,0.0388,0.0195,0.0067,-0.0115,-0.0137,-0.0201,-0.0188,-0.0171,-0.0186,-0.0179,-0.0173,-0.024,-0.024,-0.024,-0.0241,0,0.0313,0.0331,0.0366,0.0428,0.0471,0.052,0.0563,0.0581,0.0593,0.059,0.0562,0.0466,0.0356,0.0205,0.0064,-0.0064,-0.0163,-0.0207,-0.0207,-0.0195,-0.0175,-0.0188,-0.0181,-0.0242,-0.0242,-0.0242,-0.0242,0,0.0327,0.0351,0.0396,0.045,0.0505,0.0554,0.0578,0.0604,0.0621,0.0612,0.0601,0.0486,0.0418,0.023,0.0102,-0.0024,-0.0059,-0.0104,-0.011,-0.011,-0.0044,0.0003,-0.0032,0,0,0,0,0,0.0339,0.0366,0.0416,0.0472,0.0526,0.056,0.0615,0.0632,0.0647,0.0637,0.0621,0.0524,0.0338,0.0258,0.0132,0.0081,-0.0091,-0.0073,-0.0148,-0.0251,-0.0249,-0.0192,0,0,0,0,0,0,0.0347,0.0391,0.0414,0.0479,0.0518,0.0579,0.0615,0.063,0.0624,0.0622,0.053,0.0486,0.0307,0.041,0.0127,0.0088,0.0022,-0.0158,-0.0161,-0.0252,-0.025,-0.0249,-0.019,0,0,0,0,0]}]]